#timestamp,LO_Frequency,Hit,StdDev 
1520823615.6,286047004.3,N
1520823635.5,286047004.2,N
1520823655.3,286047004.1,N
1520823675.1,286047001.7,N
1520823695.9,286047001.6,N
1520823715.7,286047001.4,N
1520823735.5,286047002.7,N
1520823755.4,286047002.7,N
1520823775.2,286047002.7,N
1520823795.1,286047000.2,N
1520823796.0,286047000.2,N
1520823815.8,286047001.3,N
1520823835.6,286047001.6,N
1520823855.5,286047001.5,N
1520823875.3,286047001.6,N
1520823895.1,286047001.9,N
1520823915.9,286047001.6,N
1520823935.7,286047002.2,N
1520823955.6,286047001.5,N
1520823975.4,286047001.8,N
1520823995.2,286047002.7,N
1520824015.1,286047002.2,N
1520824016.0,286047002.2,N
1520824035.8,286047004.4,Y
1520824055.7,286046999.8,P
1520824075.5,286047000.1,N
1520824095.3,286046999.9,N
1520824115.2,286047002.1,N
1520824135.0,286047004.4,Y
1520824135.9,286047004.4,P
1520824155.8,286047002.5,N
1520824175.6,286047000.5,N
1520824195.4,286046998.9,N
1520824215.3,286046999.2,N
1520824235.1,286046999.5,N
1520824255.8,286046997.0,N
1520824275.7,286046997.8,N
1520824295.5,286046997.1,N
1520824315.4,286046996.9,N
1520824335.2,286046999.1,N
1520824355.0,286046999.2,N
1520824355.9,286046999.2,N
1520824375.8,286046997.3,N
1520824395.6,286046997.7,N
1520824415.4,286046999.0,N
1520824435.3,286046999.2,N
1520824455.1,286046998.8,N
1520824475.9,286046997.3,N
1520824495.7,286046995.1,N
1520824515.5,286046995.4,N
1520824535.4,286046996.9,N
1520824555.2,286046999.5,N
1520824575.1,286046997.3,N
1520824576.0,286046997.3,N
1520824595.8,286046997.5,N
1520824615.6,286046997.3,N
1520824635.5,286046999.5,N
1520824655.3,286046996.8,N
1520824675.1,286046996.5,N
1520824695.9,286046997.1,N
1520824715.7,286046997.8,N
1520824735.6,286046997.6,N
1520824755.4,286046996.8,N
1520824775.2,286046999.0,N
1520824795.1,286047000.7,N
1520824796.0,286047000.7,N
1520824815.8,286047000.6,N
1520824835.7,286047000.0,N
1520824855.5,286047000.6,N
1520824875.3,286046998.3,N
1520824895.2,286046998.9,N
1520824915.0,286047000.7,N
1520824915.9,286047000.7,N
1520824935.7,286047000.9,N
1520824955.6,286047001.0,N
1520824975.4,286046998.3,N
1520824995.3,286046999.4,N
1520825015.1,286046999.1,N
1520825035.8,286046999.6,N
1520825055.7,286046996.9,N
1520825075.5,286046999.1,N
1520825095.4,286046996.5,N
1520825115.2,286046997.2,N
1520825135.0,286046998.0,N
1520825135.9,286046998.0,N
1520825155.8,286046997.7,N
1520825175.6,286046996.5,N
1520825195.4,286046999.0,N
1520825215.3,286046996.6,N
1520825235.1,286046999.2,N
1520825255.9,286046996.8,N
1520825275.7,286046999.5,N
1520825295.5,286046998.7,N
1520825315.4,286046998.1,N
1520825335.2,286047001.0,N
1520825355.1,286047000.2,N
1520825356.0,286047000.2,N
1520825375.8,286046998.2,N
1520825395.6,286047000.7,N
1520825415.5,286046998.4,N
1520825435.3,286046998.2,N
1520825455.1,286046999.3,N
1520825475.9,286046999.2,N
1520825495.7,286046999.5,N
1520825515.6,286046999.6,N
1520825535.4,286046996.7,N
1520825555.2,286046999.0,N
1520825575.1,286046999.0,N
1520825576.0,286046999.0,N
1520825595.8,286046998.5,N
1520825615.7,286046998.1,N
1520825635.5,286046998.9,N
1520825655.3,286046998.9,N
1520825675.2,286046999.5,N
1520825695.0,286046996.7,N
1520825695.9,286046996.7,N
1520825715.8,286046999.4,N
1520825735.6,286046997.3,N
1520825755.4,286046999.5,N
1520825775.3,286046998.1,N
1520825795.1,286046998.2,N
1520825815.8,286046998.6,N
1520825835.7,286046999.0,N
1520825855.5,286046998.8,N
1520825875.4,286046998.8,N
1520825895.2,286047000.8,N
1520825915.0,286047000.0,N
1520825915.9,286047000.0,N
1520825935.8,286047002.7,N
1520825955.6,286047000.7,N
1520825975.5,286046998.3,N
1520825995.3,286046998.2,N
1520826015.1,286047001.2,N
1520826035.9,286047000.7,N
1520826055.7,286046998.2,N
1520826075.5,286047000.0,N
1520826095.4,286047000.5,N
1520826115.2,286047000.3,N
1520826135.1,286047000.7,N
1520826136.0,286047000.7,N
1520826155.8,286046998.2,N
1520826175.6,286047001.2,N
1520826195.5,286047001.1,N
1520826215.3,286047000.6,N
1520826235.1,286047000.1,N
1520826255.9,286047000.5,N
1520826275.7,286047000.5,N
1520826295.6,286047000.1,N
1520826315.4,286046999.8,N
1520826335.2,286047000.4,N
1520826355.1,286047000.6,N
1520826356.0,286047000.6,N
1520826375.8,286047001.2,N
1520826395.7,286046998.5,N
1520826415.5,286047000.9,N
1520826435.3,286047000.6,N
1520826455.2,286046998.4,N
1520826475.9,286046998.6,N
1520826495.7,286047000.9,N
1520826545.6,286047001.2,E
1520826555.5,286046998.8,N
1520826575.4,286046998.7,P
1520826595.2,286047001.1,P
1520826615.0,286046998.7,N
1520826615.9,286046998.7,N
1520826635.8,286046998.9,N
1520826655.6,286047000.7,N
1520826675.4,286046999.0,N
1520826695.3,286046998.5,N
1520826715.1,286046996.5,Y
1520826735.9,286047000.7,P
1520826755.7,286047000.8,N
1520826775.5,286046999.5,N
1520826795.4,286046999.2,N
1520826815.2,286046999.1,N
1520826835.1,286046996.9,Y
1520826836.0,286046996.9,P
1520826855.8,286046999.1,N
1520826875.7,286046998.7,N
1520826895.5,286046998.5,N
1520826915.3,286046998.5,N
1520826935.2,286047000.6,N
1520826955.0,286047000.7,N
1520826955.9,286047000.7,N
1520826975.7,286046999.8,N
1520826995.6,286047002.0,N
1520827015.4,286047000.0,N
1520827035.3,286047000.2,N
1520827055.1,286046998.6,N
1520827056.0,286046998.6,N
1520827075.8,286046998.6,N
1520827095.7,286046998.6,N
1520827115.5,286046998.5,N
1520827135.4,286047001.2,N
1520827155.2,286046998.4,N
1520827175.0,286047000.6,N
1520827175.9,286047000.6,N
1520827195.8,286047002.6,N
